Weather History for Naples, FL

Change the Weather History Date:

Wednesday, December 26, 2012

  Actual Average Record
Temperature  
Mean Temperature 71 °F 65 °F  
Max Temperature 79 °F 76 °F 87 °F (1951)
Min Temperature 63 °F 55 °F 27 °F (1983)
Degree Days  
Heating Degree Days 0 2  
Month to date heating degree days 20 47  
Since 1 July heating degree days 33 61  
Cooling Degree Days 6 3  
Month to date cooling degree days 150 107  
Year to date cooling degree days 4116 3926  
Growing Degree Days 21 (Base 50)    
Moisture  
Dew Point 65 °F    
Average Humidity 88    
Maximum Humidity 100    
Minimum Humidity 76    
Precipitation  
Precipitation 0.07 in 0.05 in 0.79 in (2001)
Month to date precipitation 1.78 1.26  
Year to date precipitation 37.93 51.70  
Snow  
Snow 0.00 in - - ()
Month to date snowfall 0.0  
Since 1 July snowfall 0.0  
Snow Depth 0.00 in    
Sea Level Pressure  
Sea Level Pressure 29.93 in    
Wind  
Wind Speed 11 mph (West)    
Max Wind Speed 23 mph    
Max Gust Speed 32 mph    
Visibility 8 miles    
Events Rain    
T = Trace of Precipitation, MM = Missing Value Source: NWS Daily Summary

Daily Weather History Graph

Daily Weather History Graph

Search for Another Location

Airport:

Trip Planner

Search our weather history database for the weather conditions in past years. The results will help you decide how hot, cold, wet, or windy it might be!

Date:

Astronomy

Dec. 26, 2012 Rise Set
Actual Time 7:12 AM EST 5:43 PM EST
Civil Twilight 6:47 AM EST 6:08 PM EST
Nautical Twilight 6:18 AM EST 6:37 PM EST
Astronomical Twilight 5:50 AM EST 7:05 PM EST
Moon 4:33 PM EST (12/26) 5:37 AM EST (12/26)
Length of Visible Light 11h 21m
Length of Day
10h 30m
Waxing Gibbous, 97% of the Moon is Illuminated
Dec 26
Waxing Gibbous
Dec 28
Full
Jan 4
Last Quarter
Jan 11
New
Jan 18
First Quarter

Hourly Weather History & Observations

Time (EST) Temp. Dew Point Humidity Pressure Visibility Wind Dir Wind Speed Gust Speed Precip Events Conditions
12:53 AM 66.9 °F 63.0 °F 87% 29.89 in 10.0 mi SE 6.9 mph - N/A   Clear
1:53 AM 64.0 °F 62.1 °F 93% 29.90 in 10.0 mi East 4.6 mph - N/A   Clear
2:53 AM 63.0 °F 62.1 °F 97% 29.91 in 10.0 mi ENE 3.5 mph - N/A   Clear
3:53 AM 64.9 °F 63.0 °F 93% 29.92 in 10.0 mi Calm Calm - N/A   Overcast
4:53 AM 64.0 °F 64.0 °F 100% 29.91 in 10.0 mi SE 4.6 mph - 0.00 in   Scattered Clouds
6:53 AM 64.0 °F 64.0 °F 100% 29.91 in 8.0 mi SE 6.9 mph - N/A   Partly Cloudy
7:53 AM 66.9 °F 66.9 °F 100% 29.91 in 7.0 mi SSE 4.6 mph - N/A   Clear
8:53 AM 72.0 °F 70.0 °F 93% 29.92 in 9.0 mi South 9.2 mph - N/A   Partly Cloudy
9:53 AM 75.0 °F 70.0 °F 84% 29.93 in 10.0 mi SSW 16.1 mph 24.2 mph N/A   Scattered Clouds
10:53 AM 75.9 °F 70.0 °F 82% 29.94 in 10.0 mi SSW 15.0 mph 23.0 mph N/A   Mostly Cloudy
11:53 AM 79.0 °F 71.1 °F 77% 29.91 in 10.0 mi SSW 19.6 mph 25.3 mph N/A   Clear
12:53 PM 79.0 °F 71.1 °F 77% 29.89 in 10.0 mi SSW 18.4 mph 25.3 mph N/A   Clear
1:53 PM 78.1 °F 71.1 °F 79% 29.87 in 10.0 mi SSW 18.4 mph 25.3 mph N/A   Clear
2:53 PM 77.0 °F 72.0 °F 84% 29.87 in 9.0 mi SSW 17.3 mph 24.2 mph N/A   Mostly Cloudy
3:53 PM 77.0 °F 72.0 °F 84% 29.86 in 9.0 mi SSW 17.3 mph - N/A   Overcast
4:33 PM 73.4 °F 71.6 °F 94% 29.89 in 1.8 mi WNW 21.9 mph 27.6 mph 0.05 in Rain Rain
4:43 PM 69.8 °F 68.0 °F 94% 29.89 in 2.0 mi West 8.1 mph - 0.07 in Rain Light Rain
4:45 PM 69.8 °F 68.0 °F 94% 29.89 in 5.0 mi West 9.2 mph - 0.07 in Rain Light Rain
4:53 PM 69.1 °F 69.1 °F 100% 29.88 in 6.0 mi West 6.9 mph - 0.07 in   Overcast
5:53 PM 70.0 °F 69.1 °F 97% 29.90 in 6.0 mi West 12.7 mph - N/A   Overcast
6:53 PM 69.1 °F 66.0 °F 90% 29.93 in 7.0 mi NW 11.5 mph - N/A   Overcast
7:29 PM 69.8 °F 64.4 °F 83% 29.95 in 8.0 mi NW 11.5 mph 20.7 mph N/A   Overcast
7:53 PM 69.1 °F 63.0 °F 81% 29.96 in 8.0 mi NW 10.4 mph 18.4 mph N/A   Overcast
8:24 PM 68.0 °F 62.6 °F 83% 29.97 in 9.0 mi NW 10.4 mph 18.4 mph N/A   Overcast
8:53 PM 68.0 °F 61.0 °F 78% 29.98 in 10.0 mi NW 12.7 mph 19.6 mph N/A   Overcast
9:33 PM 66.2 °F 60.8 °F 83% 30.00 in 9.0 mi NW 12.7 mph 18.4 mph N/A   Overcast
9:53 PM 66.0 °F 59.0 °F 78% 30.00 in 9.0 mi NNW 13.8 mph 21.9 mph N/A   Overcast
10:46 PM 64.4 °F 57.2 °F 77% 30.01 in 10.0 mi NNW 8.1 mph - N/A   Mostly Cloudy
10:53 PM 64.9 °F 57.0 °F 75% 30.01 in 10.0 mi NNW 9.2 mph - N/A   Scattered Clouds
11:33 PM 64.4 °F 57.2 °F 77% 30.01 in 10.0 mi NNW 5.8 mph - N/A   Mostly Cloudy
11:53 PM 64.0 °F 57.0 °F 78% 30.01 in 10.0 mi NNW 8.1 mph - N/A   Mostly Cloudy